Regional Weather Roundup
Issued by NWS

Home | Current Version | Previous Version | Text Only | Print | Product List | Glossary On
Versions: 1 2 3 4 5 6 7 8 9 10 11 12 13 14 15 16 17 18 19 20 21 22 23 24 25 26 27 28 29 30 31 32 33 34 35 36 37 38 39 40 41 42 43 44 45 46 47 48 49 50
000
ASUS43 KMPX 040010
RWRMN
WEATHER ROUNDUP FOR MINNESOTA
NATIONAL WEATHER SERVICE TWIN CITIES/CHANHASSEN MN
700 PM CDT TUE MAY 03 2016


NOTE: "FAIR" INDICATES FEW OR NO CLOUDS BELOW 12,000 FEET WITH NO
SIGNIFICANT WEATHER AND/OR OBSTRUCTIONS TO VISIBILITY. N/A MEANS
CURRENT SKY AND/OR WEATHER CONDITIONS ARE NOT AVAILABLE.

MNZ060>063-068>070-040100-
   Twin Cities Metro

CITY           SKY/WX    TMP DP  RH WIND       PRES   REMARKS
TWIN CITIES    MOSUNNY   71  37  28 N18G26    29.66S
6HR MIN TEMP:  67; 6HR MAX TEMP:  73;

ST PAUL        MOSUNNY   69  42  37 N17G25    29.66S
CRYSTAL        MOSUNNY   71  31  22 N18G28    29.66R
BLAINE         MOSUNNY   70  30  23 N20       29.68R
EDEN PRAIRIE   MOSUNNY   72  30  21 NW15G29   29.65F
6HR MIN TEMP:  68; 6HR MAX TEMP:  73; 6HR PCP: TRACE;

SOUTH ST PAUL  MOSUNNY   70  40  33 N13G22    29.65S
LAKE ELMO      PTSUNNY   66  41  39 N14G22    29.67S
$$
MNZ001>005-007-008-013>017-022>024-027-028-040100-
   Northwest Minnesota

CITY           SKY/WX    TMP DP  RH WIND       PRES   REMARKS
BEMIDJI        SUNNY     59  30  33 N17G30    29.85R
HALLOCK        SUNNY     61  25  25 N20G26    29.95R
ROSEAU         SUNNY     63  36  36 N15       29.91R
WARROAD        SUNNY     59  37  44 N10       29.91S
THIEF RVR FALL SUNNY     61  30  31 NW18      29.92R
CROOKSTON      SUNNY     63  28  27 N22G29    29.92R
FOSSTON        SUNNY     63  27  25 N21       29.88R
DETROIT LAKES  SUNNY     63  27  25 N12G30    29.86R
MOORHEAD       SUNNY     66  23  19 N22G33    29.88R
PARK RAPIDS    SUNNY     63  24  22 N17G28    29.81R
MAHNOMEN       FAIR      62  28  27 N21G26    29.86R
$$
MNZ006-009>011-018-025>026-040100-
   North Central Minnesota

CITY           SKY/WX    TMP DP  RH WIND       PRES   REMARKS
BAUDETTE       SUNNY     58  32  37 N17G28    29.89R
FLAG ISLAND    SUNNY     55  36  47 N13       29.90S
INTL FALLS     MOSUNNY   57  32  38 N16G23    29.86R
6HR MIN TEMP:  57; 6HR MAX TEMP:  64;

WASKISH        SUNNY     61  34  36 N12G20    29.87R
BIG FORK       SUNNY     61  30  31 N12G22    29.82R
LONGVILLE      SUNNY     61  28  29 N9G23     29.80S
GRAND RAPIDS   SUNNY     61  27  27 N24       29.80R
CRANE LAKE     MOSUNNY   55  32  41 N10G21    29.84R
ORR            MOSUNNY   57  28  33 N9G16     29.80R
COOK           MOSUNNY   57  32  38 N10G22    29.81R
WALKER         FAIR      59  29  31 N12G25    29.83R
$$
MNZ012-019>021-037-040100-
   Northeast Minnesota

CITY           SKY/WX    TMP DP  RH WIND       PRES   REMARKS
DULUTH         MOSUNNY   62  28  27 N16G26    29.72R
6HR MIN TEMP:  61; 6HR MAX TEMP:  68;

ELY            PTSUNNY   55  30  38 N10G20    29.78R
HIBBING        SUNNY     57  28  33 N20G26    29.77R
EVELETH        SUNNY     59  27  29 N18G24    29.78R
DULUTH HARBOR  MOSUNNY   57  34  41 N18       29.72R
TWO HARBORS    MOSUNNY   64  37  36 N15G24    29.70R
SILVER BAY     SUNNY     61  27  27 NW10G20   29.71R
GRAND MARAIS     N/A     59  33  37 N12G24    29.71R
G MARAIS ARPRT MOSUNNY   52  30  43 NW20G28   29.73R
$$
MNZ029>031-032-039>041-046>048-054>057-064-040100-
   West Central Minnesota

CITY           SKY/WX    TMP DP  RH WIND       PRES   REMARKS
FERGUS FALLS   SUNNY     64  28  25 N21G37    29.81R
WHEATON        SUNNY     68  34  28 NW23G30   29.87R
MORRIS         SUNNY     68  28  22 N26G32    29.81R
ALEXANDRIA     SUNNY     64  25  22 N22G28    29.81R
ELBOW LAKE     FAIR      64  31  28 NW22G30   29.83R
WADENA         SUNNY     64  30  27 N16G24    29.80R
GLENWOOD       SUNNY     64  27  24 NW20G30   29.80R
APPLETON       SUNNY     70  23  17 N31G38    29.81R
BENSON         SUNNY     66  18  15 N28G36    29.80R
ORTONVILLE     SUNNY     66  27  22 N28G36    29.84R
MADISON        SUNNY     68  25  19 N24G36    29.82R
WILLMAR        FAIR      70  28  21 N25G31    29.78R
$$
MNZ033>034-036-042>043-049>051-058-059-040100-
   Central Minnesota

CITY           SKY/WX    TMP DP  RH WIND       PRES   REMARKS
ST CLOUD       SUNNY     67  28  23 N18G25    29.71R
6HR MIN TEMP:  67; 6HR MAX TEMP:  74;

SAUK CENTRE    FAIR      65  29  25 NW17G25   29.77R
PAYNESVILLE    SUNNY     68  21  17 NW17G25   29.75R
AITKIN         SUNNY     64  18  16 N15G21    29.75R
PINE RIVER     SUNNY     63  30  29 N17G30    29.84R
BRAINERD       SUNNY     63  24  22 N24G33    29.78R
STAPLES        SUNNY     64  21  19 N14G28    29.79R
LONG PRAIRIE   FAIR      64  27  24 NW16G22   29.78R
LITTLE FALLS   SUNNY     64  23  20 N9        29.76R
LITCHFIELD     SUNNY     70  28  21 NW17G30   29.73R
BUFFALO        SUNNY     69  28  21 NW13G24   29.70R
MAPLE LAKE     SUNNY     70  33  25 N14G23    29.71R
HUTCHINSON     SUNNY     71  28  20 NW26      29.72S
$$
MNZ037-044-045-052-053-040100-
   East Central Minnesota

CITY           SKY/WX    TMP DP  RH WIND       PRES   REMARKS
PRINCETON      SUNNY     68  28  22 NW20G25   29.71R
MORA           SUNNY     64  27  24 N10G24    29.73R
CAMBRIDGE      SUNNY     70  43  37 NW17G24   29.69R
RUSH CITY      SUNNY     66  28  24 N16G22    29.69R
MOOSE LAKE     MOSUNNY   64  32  29 N16G24    29.70R
HINCKLEY       CLOUDY    66  30  26 N14G23    29.71R
CLOQUET        SUNNY     63  21  20 N21G31    29.73R
MCGREGOR       MOSUNNY   63  30  29 N18G24    29.75R
$$
MNZ071>073-080-081-089-090-097-098-040100-
   Southwest Minnesota

CITY           SKY/WX    TMP DP  RH WIND       PRES   REMARKS
MONTEVIDEO     SUNNY     68  27  21 N23G36    29.81R
GRANITE FALLS  SUNNY     70  29  21 NW24G32   29.80R
CANBY          SUNNY     70  29  21 NW22G29   29.83R
MARSHALL       SUNNY     69  26  20 N30       29.78R
REDWOOD FALLS  SUNNY     70  21  15 NW20G28   29.74R
OLIVIA         SUNNY     70  27  19 NW22G35   29.74R
PIPESTONE      SUNNY     72  30  21 N15G30    29.80S
WINDOM         MOSUNNY   72  30  21 NW31G40   29.75S
WORTHINGTON    CLOUDY    67  47  48 W15       29.78F
JACKSON        PTSUNNY   68  37  32 W15       29.75F
TRACY          SUNNY     70  30  22 N25G35    29.79R
SLAYTON        SUNNY     68  32  26 N29G35    29.80R
$$
MNZ065>067-074>077-082>085-091>093-040100-
   South Central Minnesota

CITY           SKY/WX    TMP DP  RH WIND       PRES   REMARKS
MANKATO        PTSUNNY   72  39  30 W25G31    29.68F
NEW ULM        SUNNY     72  28  20 NW29      29.70F
ST JAMES       PTSUNNY   66  36  32 W17       29.72F
FAIRMONT       CLOUDY    70  28  21 W13G22    29.73F
GLENCOE        SUNNY     71  32  23 NW20G29   29.69R
FARIBAULT      PTSUNNY   68  41  37 W9G16     29.68F
OWATONNA       PTSUNNY   68  37  32 W12       29.68F
WASECA         CLOUDY    68  37  32 W13       29.70F
ALBERT LEA     CLOUDY    68  37  32 W7        29.70F
$$
MNZ078>079-086>088-094>096-040100-
   Southeast Minnesota

CITY           SKY/WX    TMP DP  RH WIND       PRES   REMARKS
ROCHESTER      PTSUNNY   65  43  44 W15       29.68F
6HR MIN TEMP:  64; 6HR MAX TEMP:  69;

RED WING       LGT RAIN  61  46  59 NW7G18    29.65R
STANTON        LGT RAIN  65  44  46 W7G25     29.65F
DODGE CENTER   CLOUDY    66  39  37 W15       29.69F
WINONA         MOSUNNY   70  37  30 W8        29.65F
AUSTIN         MOSUNNY   66  43  42 W15       29.70F
PRESTON        MOSUNNY   64  42  43 W13G22    29.70F
$$
ABBREVIATIONS USED IN REMARKS
   TC - TEMPERATURES IN CELSIUS
  WCI - WIND CHILL INDEX
   HX - HEAT INDEX
  VSB - VISIBILITY
$$



USA.gov is the U.S. government's official web portal to all federal, state and local government web resources and services.